| time (UTC) | temp F | wind direction | speed MPH | gust MPH | rain 1hr in | rain 24hr in | rain mn in | humidity % | barometer mb |
| 20260904133626 | 73 | 36 | 3.0 | 4.0 | 0.00 | 0.45 | 0.00 | 80 | 1015.8 |
| 20260904133141 | 73 | 74 | 1.0 | 6.0 | 0.00 | 0.45 | 0.00 | 80 | 1015.9 |
| 20260904132635 | 73 | 94 | 1.0 | 6.0 | 0.00 | 0.45 | 0.00 | 80 | 1015.7 |
| 20260904132121 | 73 | 66 | 1.0 | 6.0 | 0.00 | 0.45 | 0.00 | 80 | 1015.8 |
| 20260904131635 | 73 | 66 | 2.0 | 6.0 | 0.00 | 0.45 | 0.00 | 80 | 1015.8 |
| 20260904131123 | 73 | 36 | 2.0 | 5.0 | 0.00 | 0.45 | 0.00 | 80 | 1015.9 |
| 20260904130632 | 73 | 60 | 3.0 | 5.0 | 0.00 | 0.48 | 0.00 | 80 | 1015.9 |
| 20260904130138 | 73 | 61 | 3.0 | 5.0 | 0.00 | 0.48 | 0.00 | 80 | 1015.9 |
| 20260904125632 | 73 | 64 | 3.0 | 7.0 | 0.00 | 0.48 | 0.00 | 80 | 1016.0 |
| 20260904125124 | 72 | 103 | 2.0 | 6.0 | 0.00 | 0.48 | 0.00 | 81 | 1016.0 |
| 20260904124635 | 72 | 56 | 1.0 | 5.0 | 0.00 | 0.48 | 0.00 | 81 | 1016.0 |
| 20260904124143 | 72 | 64 | 2.0 | 5.0 | 0.00 | 0.48 | 0.00 | 81 | 1016.1 |
| 20260904123634 | 71 | 66 | 3.0 | 4.0 | 0.00 | 0.48 | 0.00 | 81 | 1016.0 |
| 20260904123120 | 71 | 66 | 3.0 | 4.0 | 0.00 | 0.48 | 0.00 | 81 | 1016.0 |
| 20260904122635 | 71 | 66 | 3.0 | 5.0 | 0.00 | 0.48 | 0.00 | 81 | 1016.0 |
| 20260904122121 | 71 | 62 | 1.0 | 5.0 | 0.00 | 0.48 | 0.00 | 81 | 1016.0 |
| 20260904121655 | 71 | 56 | 2.0 | 5.0 | 0.00 | 0.48 | 0.00 | 81 | 1016.0 |
| 20260904121141 | 71 | 58 | 2.0 | 6.0 | 0.00 | 0.48 | 0.00 | 81 | 1016.0 |
| 20260904120624 | 70 | 67 | 0.0 | 5.0 | 0.00 | 0.48 | 0.00 | 81 | 1015.9 |
| 20260904120156 | 70 | 51 | 2.0 | 5.0 | 0.00 | 0.48 | 0.00 | 82 | 1015.9 |
| 20260904115624 | 69 | 52 | 1.0 | 8.0 | 0.00 | 0.48 | 0.00 | 82 | 1015.8 |
| 20260904115136 | 69 | 60 | 4.0 | 8.0 | 0.00 | 0.48 | 0.00 | 83 | 1015.7 |
| 20260904114622 | 68 | 69 | 2.0 | 8.0 | 0.00 | 0.48 | 0.00 | 83 | 1015.7 |
| 20260904114132 | 68 | 24 | 4.0 | 8.0 | 0.00 | 0.48 | 0.00 | 83 | 1015.8 |
| 20260904113626 | 67 | 56 | 0.0 | 2.0 | 0.00 | 0.48 | 0.00 | 83 | 1015.9 |
| 20260904113120 | 67 | 289 | 0.0 | 0.0 | 0.00 | 0.48 | 0.00 | 83 | 1016.1 |
| 20260904112634 | 67 | 325 | 0.0 | 0.0 | 0.00 | 0.48 | 0.00 | 83 | 1016.0 |
| 20260904112148 | 67 | 325 | 0.0 | 0.0 | 0.00 | 0.48 | 0.00 | 83 | 1016.3 |
| 20260904111642 | 67 | 325 | 0.0 | 0.0 | 0.00 | 0.48 | 0.00 | 83 | 1016.3 |
| 20260904111139 | 67 | 330 | 0.0 | 0.0 | 0.00 | 0.48 | 0.00 | 83 | 1016.2 |
| 20260904110624 | 67 | 330 | 0.0 | 0.0 | 0.00 | 0.56 | 0.00 | 83 | 1016.1 |
| 20260904110137 | 66 | 330 | 0.0 | 0.0 | 0.00 | 0.56 | 0.00 | 83 | 1015.8 |
| 20260904105645 | 66 | 328 | 0.0 | 0.0 | 0.00 | 0.56 | 0.00 | 83 | 1016.0 |
| 20260904105138 | 66 | 327 | 0.0 | 0.0 | 0.00 | 0.56 | 0.00 | 83 | 1016.0 |
| 20260904104625 | 66 | 327 | 0.0 | 0.0 | 0.00 | 0.56 | 0.00 | 83 | 1016.0 |
| 20260904104140 | 66 | 327 | 0.0 | 0.0 | 0.00 | 0.56 | 0.00 | 83 | 1015.8 |
| 20260904103625 | 66 | 193 | 0.0 | 0.0 | 0.00 | 0.56 | 0.00 | 83 | 1015.6 |
| 20260904103138 | 66 | 193 | 0.0 | 0.0 | 0.00 | 0.56 | 0.00 | 83 | 1015.6 |
| 20260904102625 | 66 | 193 | 0.0 | 0.0 | 0.00 | 0.56 | 0.00 | 83 | 1015.5 |
| 20260904102139 | 66 | 193 | 0.0 | 0.0 | 0.00 | 0.56 | 0.00 | 83 | 1015.5 |
| 20260904101626 | 66 | 193 | 0.0 | 0.0 | 0.00 | 0.56 | 0.00 | 82 | 1015.5 |
| 20260904101201 | 67 | 193 | 0.0 | 3.0 | 0.00 | 0.56 | 0.00 | 82 | 1015.6 |
| 20260904100625 | 67 | 193 | 0.0 | 4.0 | 0.00 | 1.24 | 0.00 | 82 | 1015.4 |
| 20260904100120 | 67 | 193 | 2.0 | 4.0 | 0.00 | 1.24 | 0.00 | 82 | 1015.4 |
| 20260904095631 | 67 | 202 | 0.0 | 0.0 | 0.00 | 1.24 | 0.00 | 82 | 1015.5 |
| 20260904095124 | 67 | 202 | 0.0 | 1.0 | 0.00 | 1.24 | 0.00 | 82 | 1015.4 |
| 20260904094618 | 67 | 212 | 0.0 | 5.0 | 0.00 | 1.24 | 0.00 | 82 | 1015.5 |
| 20260904094154 | 67 | 212 | 1.0 | 5.0 | 0.00 | 1.24 | 0.00 | 82 | 1015.3 |
| 20260904093639 | 67 | 101 | 0.0 | 0.0 | 0.00 | 1.24 | 0.00 | 82 | 1015.4 |
| 20260904093123 | 67 | 101 | 0.0 | 2.0 | 0.00 | 1.24 | 0.00 | 82 | 1015.3 |
| 20260904092639 | 67 | 101 | 0.0 | 3.0 | 0.00 | 1.24 | 0.00 | 83 | 1015.0 |
| 20260904092124 | 67 | 94 | 0.0 | 3.0 | 0.00 | 1.24 | 0.00 | 83 | 1015.0 |
| 20260904091637 | 67 | 95 | 1.0 | 3.0 | 0.00 | 1.24 | 0.00 | 83 | 1015.0 |
| 20260904091131 | 67 | 95 | 0.0 | 0.0 | 0.00 | 1.24 | 0.00 | 83 | 1014.9 |
| 20260904090653 | 68 | 95 | 0.0 | 4.0 | 0.00 | 1.36 | 1.24 | 84 | 1014.8 |
| 20260904090120 | 68 | 95 | 1.0 | 10.0 | 0.00 | 1.36 | 1.24 | 84 | 1014.9 |
| 20260904085656 | 68 | 97 | 7.0 | 10.0 | 0.00 | 1.36 | 1.24 | 84 | 1015.0 |
| 20260904085139 | 68 | 93 | 0.0 | 7.0 | 0.00 | 1.36 | 1.24 | 84 | 1015.1 |
| 20260904084648 | 68 | 91 | 2.0 | 7.0 | 0.00 | 1.36 | 1.24 | 84 | 1015.1 |
| 20260904084122 | 67 | 101 | 3.0 | 6.0 | 0.00 | 1.36 | 1.24 | 84 | 1015.1 |
| 20260904083635 | 67 | 141 | 1.0 | 7.0 | 0.00 | 1.36 | 1.24 | 85 | 1014.9 |
| 20260904083128 | 67 | 121 | 2.0 | 7.0 | 0.00 | 1.36 | 1.24 | 85 | 1014.9 |
| 20260904082623 | 67 | 93 | 0.0 | 6.0 | 0.00 | 1.36 | 1.24 | 85 | 1014.8 |
| 20260904082135 | 67 | 96 | 1.0 | 6.0 | 0.00 | 1.36 | 1.24 | 85 | 1014.7 |
| 20260904081629 | 67 | 84 | 0.0 | 3.0 | 0.00 | 1.36 | 1.24 | 85 | 1014.7 |
| 20260904081124 | 67 | 72 | 1.0 | 3.0 | 0.00 | 1.36 | 1.24 | 85 | 1014.6 |
| 20260904080618 | 67 | 61 | 2.0 | 3.0 | 0.00 | 1.36 | 1.24 | 85 | 1014.6 |
| 20260904080132 | 67 | 182 | 0.0 | 5.0 | 0.00 | 1.36 | 1.24 | 85 | 1014.6 |
| 20260904075622 | 66 | 166 | 1.0 | 5.0 | 0.00 | 1.36 | 1.24 | 85 | 1014.6 |
| 20260904075157 | 66 | 128 | 0.0 | 3.0 | 0.00 | 1.36 | 1.24 | 85 | 1014.8 |
| 20260904074621 | 66 | 141 | 1.0 | 7.0 | 0.00 | 1.36 | 1.24 | 85 | 1014.8 |
| 20260904074156 | 66 | 191 | 2.0 | 8.0 | 0.00 | 1.36 | 1.24 | 85 | 1014.8 |
| 20260904073621 | 66 | 228 | 3.0 | 8.0 | 0.00 | 1.36 | 1.24 | 85 | 1014.4 |
| 20260904073136 | 66 | 201 | 4.0 | 6.0 | 0.00 | 1.36 | 1.24 | 85 | 1014.5 |
| 20260904072623 | 66 | 210 | 2.0 | 5.0 | 0.00 | 1.36 | 1.24 | 85 | 1014.4 |
| 20260904072157 | 66 | 183 | 1.0 | 11.0 | 0.00 | 1.36 | 1.24 | 85 | 1014.2 |
| 20260904071623 | 66 | 170 | 5.0 | 11.0 | 0.00 | 1.36 | 1.24 | 85 | 1014.2 |
| 20260904071137 | 66 | 188 | 5.0 | 9.0 | 0.00 | 1.36 | 1.24 | 85 | 1014.2 |
| 20260904070624 | 66 | 213 | 3.0 | 8.0 | 0.00 | 1.36 | 1.24 | 85 | 1014.2 |
| 20260904070118 | 66 | 209 | 4.0 | 8.0 | 0.00 | 1.36 | 1.24 | 84 | 1014.3 |
| 20260904065634 | 66 | 192 | 0.0 | 4.0 | 0.00 | 1.36 | 1.24 | 84 | 1014.3 |
| 20260904065120 | 65 | 40 | 0.0 | 4.0 | 0.00 | 1.36 | 1.24 | 84 | 1014.3 |
| 20260904064651 | 65 | 45 | 0.0 | 10.0 | 0.00 | 1.36 | 1.24 | 84 | 1014.2 |
| 20260904064146 | 65 | 122 | 0.0 | 13.0 | 0.00 | 1.36 | 1.24 | 84 | 1014.3 |
| 20260904063639 | 65 | 168 | 8.0 | 13.0 | 0.00 | 1.36 | 1.24 | 84 | 1014.2 |
| 20260904063147 | 65 | 170 | 7.0 | 14.0 | 0.00 | 1.36 | 1.24 | 84 | 1014.1 |
| 20260904062621 | 65 | 176 | 10.0 | 12.0 | 0.00 | 1.36 | 1.24 | 84 | 1014.1 |
| 20260904062135 | 65 | 190 | 3.0 | 8.0 | 0.00 | 1.36 | 1.24 | 84 | 1014.1 |
| 20260904061622 | 65 | 196 | 3.0 | 10.0 | 0.00 | 1.36 | 1.24 | 84 | 1014.1 |
| 20260904061156 | 65 | 159 | 7.0 | 11.0 | 0.00 | 1.36 | 1.24 | 84 | 1014.1 |
| 20260904060622 | 65 | 172 | 4.0 | 8.0 | 0.00 | 1.36 | 1.24 | 84 | 1014.2 |
| 20260904060156 | 65 | 171 | 2.0 | 6.0 | 0.00 | 1.36 | 1.24 | 84 | 1014.2 |
| 20260904055623 | 65 | 194 | 2.0 | 4.0 | 0.00 | 1.36 | 1.24 | 84 | 1014.3 |
| 20260904055135 | 65 | 214 | 2.0 | 4.0 | 0.00 | 1.36 | 1.24 | 84 | 1014.3 |
| 20260904054622 | 65 | 203 | 1.0 | 5.0 | 0.00 | 1.36 | 1.24 | 84 | 1014.4 |
| 20260904054118 | 65 | 176 | 2.0 | 5.0 | 0.00 | 1.36 | 1.24 | 84 | 1014.4 |
| 20260904053634 | 65 | 197 | 1.0 | 5.0 | 0.00 | 1.36 | 1.24 | 84 | 1014.6 |
| 20260904053119 | 65 | 210 | 0.0 | 2.0 | 0.00 | 1.36 | 1.24 | 84 | 1014.7 |
| 20260904052635 | 65 | 210 | 0.0 | 4.0 | 0.00 | 1.36 | 1.24 | 84 | 1014.8 |
| 20260904052122 | 65 | 196 | 1.0 | 8.0 | 0.00 | 1.36 | 1.24 | 84 | 1014.9 |
| 20260904051617 | 65 | 188 | 3.0 | 8.0 | 0.00 | 1.36 | 1.24 | 84 | 1015.0 |
| 20260904051129 | 66 | 238 | 2.0 | 10.0 | 0.00 | 1.36 | 1.24 | 84 | 1015.1 |
| 20260904050622 | 65 | 199 | 4.0 | 10.0 | 0.00 | 1.36 | 1.24 | 84 | 1015.1 |
| 20260904050135 | 65 | 184 | 2.0 | 8.0 | 0.00 | 1.36 | 1.24 | 83 | 1015.0 |
| 20260904045631 | 65 | 203 | 4.0 | 8.0 | 0.01 | 1.36 | 1.24 | 83 | 1015.3 |
| 20260904045123 | 65 | 239 | 5.0 | 8.0 | 0.01 | 1.36 | 1.24 | 83 | 1015.4 |
| 20260904044617 | 65 | 209 | 4.0 | 7.0 | 0.01 | 1.36 | 1.24 | 83 | 1015.3 |
| 20260904044132 | 66 | 195 | 3.0 | 9.0 | 0.01 | 1.36 | 1.24 | 83 | 1015.3 |
| 20260904043625 | 66 | 194 | 4.0 | 9.0 | 0.01 | 1.36 | 1.24 | 83 | 1015.3 |
| 20260904043120 | 66 | 188 | 4.0 | 7.0 | 0.01 | 1.36 | 1.24 | 83 | 1015.3 |
| 20260904042637 | 66 | 197 | 3.0 | 10.0 | 0.01 | 1.36 | 1.24 | 83 | 1015.3 |
| 20260904042124 | 66 | 212 | 4.0 | 11.0 | 0.01 | 1.36 | 1.24 | 83 | 1015.5 |
| 20260904041619 | 66 | 207 | 7.0 | 10.0 | 0.01 | 1.36 | 1.24 | 83 | 1015.5 |
| 20260904041135 | 66 | 216 | 3.0 | 7.0 | 0.01 | 1.36 | 1.24 | 83 | 1015.5 |
| 20260904040621 | 66 | 196 | 3.0 | 7.0 | 0.01 | 1.36 | 1.24 | 83 | 1015.5 |
| 20260904040136 | 66 | 202 | 4.0 | 7.0 | 0.01 | 1.36 | 1.24 | 83 | 1015.4 |
| 20260904035624 | 66 | 197 | 2.0 | 7.0 | 0.00 | 1.35 | 1.23 | 82 | 1015.4 |
| 20260904035139 | 66 | 195 | 2.0 | 7.0 | 0.00 | 1.35 | 1.23 | 83 | 1015.5 |
| 20260904034647 | 66 | 195 | 3.0 | 5.0 | 0.00 | 1.35 | 1.23 | 83 | 1015.6 |
| 20260904034121 | 66 | 207 | 1.0 | 5.0 | 0.00 | 1.35 | 1.23 | 82 | 1015.6 |
| 20260904033636 | 66 | 201 | 3.0 | 5.0 | 0.01 | 1.35 | 1.23 | 82 | 1015.8 |
| 20260904033123 | 66 | 191 | 0.0 | 5.0 | 0.02 | 1.35 | 1.23 | 82 | 1015.8 |
| 20260904032658 | 66 | 192 | 1.0 | 5.0 | 0.03 | 1.35 | 1.23 | 82 | 1015.8 |
| 20260904032124 | 66 | 168 | 2.0 | 7.0 | 0.05 | 1.35 | 1.23 | 82 | 1015.8 |
| 20260904031617 | 66 | 205 | 2.0 | 7.0 | 0.06 | 1.35 | 1.23 | 82 | 1015.8 |
| 20260904031135 | 67 | 253 | 1.0 | 7.0 | 0.08 | 1.35 | 1.23 | 82 | 1016.0 |
| 20260904030623 | 67 | 228 | 6.0 | 8.0 | 0.09 | 1.35 | 1.23 | 82 | 1015.7 |
| 20260904030118 | 67 | 175 | 3.0 | 7.0 | 0.09 | 1.35 | 1.23 | 82 | 1015.6 |
| 20260904025650 | 67 | 197 | 1.0 | 7.0 | 0.11 | 1.35 | 1.23 | 82 | 1016.3 |
| 20260904025141 | 67 | 205 | 5.0 | 7.0 | 0.11 | 1.35 | 1.23 | 82 | 1016.5 |
| 20260904024627 | 67 | 213 | 1.0 | 8.0 | 0.12 | 1.35 | 1.23 | 82 | 1016.4 |
| 20260904024144 | 67 | 115 | 2.0 | 8.0 | 0.12 | 1.35 | 1.23 | 82 | 1016.5 |
| 20260904023638 | 67 | 200 | 1.0 | 11.0 | 0.11 | 1.34 | 1.22 | 82 | 1016.6 |
| 20260904023126 | 67 | 237 | 3.0 | 12.0 | 0.10 | 1.33 | 1.21 | 82 | 1016.4 |
| 20260904022640 | 67 | 128 | 5.0 | 12.0 | 0.09 | 1.32 | 1.20 | 82 | 1016.8 |
| 20260904022126 | 67 | 142 | 7.0 | 13.0 | 0.07 | 1.30 | 1.18 | 82 | 1017.6 |
| 20260904021639 | 68 | 155 | 6.0 | 12.0 | 0.06 | 1.29 | 1.17 | 82 | 1018.1 |
| 20260904021134 | 68 | 164 | 7.0 | 14.0 | 0.05 | 1.27 | 1.15 | 82 | 1018.4 |
| 20260904020641 | 68 | 137 | 9.0 | 14.0 | 0.05 | 1.26 | 1.14 | 82 | 1018.4 |
| 20260904020134 | 67 | 131 | 9.0 | 13.0 | 0.05 | 1.25 | 1.13 | 82 | 1018.3 |
| 20260904015645 | 67 | 127 | 4.0 | 10.0 | 0.04 | 1.24 | 1.12 | 82 | 1018.5 |
| 20260904015133 | 67 | 160 | 5.0 | 8.0 | 0.04 | 1.23 | 1.11 | 82 | 1018.5 |
| 20260904014621 | 67 | 162 | 1.0 | 10.0 | 0.05 | 1.23 | 1.11 | 82 | 1018.4 |
| 20260904014137 | 67 | 205 | 4.0 | 10.0 | 0.05 | 1.23 | 1.11 | 82 | 1018.1 |
| 20260904013623 | 67 | 210 | 4.0 | 11.0 | 0.05 | 1.23 | 1.11 | 82 | 1017.4 |
| 20260904013118 | 67 | 211 | 8.0 | 10.0 | 0.05 | 1.23 | 1.11 | 82 | 1017.2 |
| 20260904012631 | 68 | 199 | 2.0 | 5.0 | 0.06 | 1.23 | 1.11 | 82 | 1016.6 |
| 20260904012125 | 68 | 266 | 1.0 | 5.0 | 0.07 | 1.23 | 1.11 | 82 | 1016.2 |
| 20260904011619 | 68 | 237 | 1.0 | 6.0 | 0.06 | 1.22 | 1.10 | 82 | 1015.9 |
| 20260904011135 | 68 | 196 | 2.0 | 6.0 | 0.07 | 1.22 | 1.10 | 81 | 1015.4 |
| 20260904010628 | 68 | 224 | 1.0 | 10.0 | 0.13 | 1.21 | 1.09 | 81 | 1015.5 |
| 20260904010143 | 68 | 187 | 5.0 | 10.0 | 0.22 | 1.20 | 1.08 | 81 | 1015.7 |
| 20260904005637 | 68 | 212 | 1.0 | 14.0 | 0.22 | 1.20 | 1.08 | 81 | 1015.7 |
| 20260904005124 | 68 | 193 | 5.0 | 14.0 | 0.21 | 1.19 | 1.07 | 81 | 1015.9 |
| 20260904004658 | 68 | 201 | 0.0 | 8.0 | 0.20 | 1.18 | 1.06 | 81 | 1015.5 |
| 20260904004125 | 68 | 68 | 6.0 | 8.0 | 0.20 | 1.18 | 1.06 | 81 | 1015.4 |
| 20260904003619 | 69 | 71 | 2.0 | 10.0 | 0.20 | 1.18 | 1.06 | 80 | 1015.9 |
| 20260904003134 | 69 | 262 | 4.0 | 14.0 | 0.20 | 1.18 | 1.06 | 80 | 1016.2 |
| 20260904002622 | 69 | 212 | 7.0 | 14.0 | 0.19 | 1.17 | 1.05 | 80 | 1016.5 |
| 20260904001643 | 71 | 209 | 4.0 | 17.0 | 0.18 | 1.16 | 1.04 | 80 | 1016.3 |
| 20260904001139 | 72 | 241 | 4.0 | 26.0 | 0.17 | 1.15 | 1.03 | 80 | 1016.0 |
| 20260904000646 | 74 | 269 | 12.0 | 32.0 | 0.08 | 1.06 | 0.94 | 80 | 1017.2 |
| 20260904000134 | 76 | 272 | 10.0 | 14.0 | 0.00 | 0.98 | 0.86 | 80 | 1016.8 |
| 20260903235643 | 76 | 234 | 0.0 | 0.0 | 0.00 | 0.98 | 0.86 | 79 | 1015.5 |
| 20260903235131 | 76 | 234 | 0.0 | 0.0 | 0.00 | 0.98 | 0.86 | 80 | 1015.8 |
| 20260903234645 | 76 | 234 | 0.0 | 0.0 | 0.00 | 0.98 | 0.86 | 80 | 1015.6 |
| 20260903234119 | 76 | 234 | 0.0 | 0.0 | 0.00 | 0.98 | 0.86 | 79 | 1015.3 |
| 20260903233632 | 77 | 233 | 0.0 | 0.0 | 0.00 | 0.98 | 0.86 | 79 | 1015.0 |
| 20260903233124 | 77 | 233 | 0.0 | 0.0 | 0.00 | 0.98 | 0.86 | 79 | 1015.2 |
| 20260903232640 | 77 | 233 | 0.0 | 0.0 | 0.00 | 0.98 | 0.86 | 79 | 1015.8 |
| 20260903232126 | 78 | 233 | 0.0 | 0.0 | 0.00 | 0.98 | 0.86 | 79 | 1015.4 |
| 20260903231619 | 78 | 233 | 0.0 | 0.0 | 0.00 | 0.98 | 0.86 | 79 | 1015.3 |
| 20260903231155 | 78 | 234 | 0.0 | 5.0 | 0.00 | 0.98 | 0.86 | 79 | 1015.7 |
| 20260903230641 | 78 | 234 | 1.0 | 5.0 | 0.00 | 0.98 | 0.86 | 79 | 1015.9 |
| 20260903230136 | 79 | 203 | 2.0 | 3.0 | 0.00 | 0.98 | 0.86 | 78 | 1015.7 |
| 20260903225626 | 79 | 202 | 0.0 | 0.0 | 0.00 | 0.98 | 0.86 | 78 | 1014.9 |
| 20260903225141 | 80 | 202 | 0.0 | 0.0 | 0.00 | 0.98 | 0.86 | 78 | 1014.6 |
| 20260903224633 | 80 | 202 | 0.0 | 0.0 | 0.00 | 0.98 | 0.86 | 78 | 1014.5 |
| 20260903224123 | 81 | 202 | 0.0 | 0.0 | 0.00 | 0.98 | 0.86 | 77 | 1014.2 |
| 20260903223637 | 81 | 204 | 0.0 | 0.0 | 0.00 | 0.98 | 0.86 | 77 | 1014.4 |
| 20260903223145 | 82 | 204 | 0.0 | 0.0 | 0.00 | 0.98 | 0.86 | 77 | 1014.1 |
| 20260903222619 | 83 | 204 | 0.0 | 0.0 | 0.00 | 0.98 | 0.86 | 77 | 1014.1 |
| 20260903222135 | 83 | 204 | 0.0 | 0.0 | 0.00 | 0.98 | 0.86 | 76 | 1014.3 |
| 20260903221623 | 84 | 204 | 0.0 | 0.0 | 0.00 | 0.98 | 0.86 | 76 | 1014.5 |
| 20260903221118 | 84 | 204 | 0.0 | 3.0 | 0.00 | 0.98 | 0.86 | 75 | 1014.5 |
| 20260903220628 | 85 | 204 | 0.0 | 3.0 | 0.00 | 0.98 | 0.86 | 75 | 1014.5 |
| 20260903220123 | 86 | 197 | 0.0 | 2.0 | 0.00 | 0.98 | 0.86 | 75 | 1014.3 |
| 20260903215618 | 87 | 197 | 0.0 | 2.0 | 0.00 | 0.98 | 0.86 | 74 | 1014.2 |
| 20260903215131 | 87 | 197 | 0.0 | 2.0 | 0.00 | 0.98 | 0.86 | 71 | 1014.2 |
| 20260903214625 | 88 | 197 | 1.0 | 2.0 | 0.00 | 0.98 | 0.86 | 70 | 1014.1 |
| 20260903214120 | 88 | 197 | 0.0 | 3.0 | 0.00 | 0.98 | 0.86 | 69 | 1013.8 |
| 20260903213632 | 88 | 197 | 0.0 | 4.0 | 0.00 | 0.98 | 0.86 | 69 | 1013.4 |
| 20260903213126 | 89 | 178 | 2.0 | 4.0 | 0.00 | 0.98 | 0.86 | 69 | 1013.4 |
| 20260903212641 | 89 | 194 | 1.0 | 3.0 | 0.00 | 0.98 | 0.86 | 69 | 1013.4 |
| 20260903212126 | 89 | 195 | 2.0 | 4.0 | 0.00 | 0.98 | 0.86 | 68 | 1013.7 |
| 20260903211620 | 90 | 194 | 1.0 | 4.0 | 0.00 | 0.98 | 0.86 | 67 | 1013.7 |
| 20260903211136 | 90 | 193 | 2.0 | 9.0 | 0.00 | 0.98 | 0.86 | 67 | 1013.8 |
| 20260903210621 | 90 | 185 | 4.0 | 9.0 | 0.00 | 0.98 | 0.86 | 64 | 1013.9 |
| 20260903210135 | 90 | 212 | 3.0 | 10.0 | 0.00 | 0.98 | 0.86 | 65 | 1013.9 |
| 20260903205625 | 90 | 201 | 3.0 | 7.0 | 0.00 | 0.98 | 0.86 | 65 | 1013.9 |
| 20260903205119 | 90 | 222 | 2.0 | 7.0 | 0.00 | 0.98 | 0.86 | 65 | 1013.9 |
| 20260903204634 | 90 | 216 | 2.0 | 8.0 | 0.00 | 0.98 | 0.86 | 65 | 1013.8 |
| 20260903204124 | 90 | 218 | 4.0 | 9.0 | 0.00 | 0.98 | 0.86 | 65 | 1013.9 |
| 20260903203637 | 90 | 226 | 6.0 | 9.0 | 0.00 | 0.98 | 0.86 | 65 | 1013.8 |
| 20260903203123 | 90 | 224 | 2.0 | 9.0 | 0.00 | 0.98 | 0.86 | 65 | 1013.7 |
| 20260903202700 | 90 | 224 | 3.0 | 10.0 | 0.00 | 0.98 | 0.86 | 64 | 1013.8 |
| 20260903202126 | 90 | 229 | 5.0 | 9.0 | 0.00 | 0.98 | 0.86 | 65 | 1013.9 |
| 20260903201640 | 89 | 219 | 5.0 | 9.0 | 0.00 | 0.98 | 0.86 | 66 | 1013.9 |
| 20260903201135 | 89 | 214 | 2.0 | 12.0 | 0.00 | 0.98 | 0.86 | 68 | 1014.0 |
| 20260903200621 | 89 | 225 | 4.0 | 12.0 | 0.00 | 0.98 | 0.86 | 67 | 1014.1 |
| 20260903200136 | 89 | 203 | 1.0 | 10.0 | 0.00 | 0.98 | 0.86 | 68 | 1014.1 |
| 20260903195623 | 89 | 197 | 5.0 | 10.0 | 0.00 | 0.98 | 0.86 | 68 | 1014.3 |
| 20260903195152 | 89 | 214 | 4.0 | 10.0 | 0.00 | 0.98 | 0.86 | 67 | 1014.4 |
| 20260903194618 | 89 | 191 | 4.0 | 10.0 | 0.00 | 0.98 | 0.86 | 67 | 1014.4 |
| 20260903194134 | 89 | 192 | 3.0 | 11.0 | 0.00 | 0.98 | 0.86 | 68 | 1014.5 |
| 20260903193628 | 88 | 149 | 7.0 | 11.0 | 0.00 | 0.98 | 0.86 | 67 | 1014.6 |
| 20260903193122 | 88 | 197 | 5.0 | 15.0 | 0.00 | 0.98 | 0.86 | 68 | 1014.7 |
| 20260903192657 | 88 | 174 | 10.0 | 15.0 | 0.00 | 0.98 | 0.86 | 68 | 1014.8 |
| 20260903192121 | 87 | 226 | 5.0 | 12.0 | 0.00 | 0.98 | 0.86 | 67 | 1014.9 |
| 20260903191634 | 87 | 174 | 9.0 | 14.0 | 0.00 | 0.98 | 0.86 | 68 | 1014.9 |
| 20260903191123 | 87 | 164 | 8.0 | 12.0 | 0.00 | 0.98 | 0.86 | 69 | 1015.0 |
| 20260903190636 | 86 | 214 | 8.0 | 14.0 | 0.00 | 0.98 | 0.86 | 70 | 1015.1 |
| 20260903190123 | 86 | 203 | 6.0 | 14.0 | 0.00 | 0.98 | 0.86 | 71 | 1015.2 |
| 20260903185639 | 85 | 168 | 9.0 | 16.0 | 0.00 | 0.98 | 0.86 | 71 | 1015.3 |
| 20260903185124 | 85 | 168 | 8.0 | 16.0 | 0.00 | 0.98 | 0.86 | 71 | 1015.5 |
| 20260903184638 | 85 | 212 | 10.0 | 16.0 | 0.00 | 0.98 | 0.86 | 72 | 1015.5 |
| 20260903184127 | 84 | 200 | 8.0 | 17.0 | 0.00 | 0.98 | 0.86 | 72 | 1015.7 |
| 20260903183700 | 84 | 202 | 9.0 | 17.0 | 0.00 | 0.98 | 0.86 | 71 | 1015.8 |
| 20260903183146 | 84 | 156 | 6.0 | 13.0 | 0.00 | 0.98 | 0.86 | 71 | 1015.8 |
| 20260903182641 | 84 | 217 | 6.0 | 17.0 | 0.00 | 0.98 | 0.86 | 72 | 1015.8 |
| 20260903182126 | 83 | 173 | 10.0 | 16.0 | 0.00 | 0.98 | 0.86 | 73 | 1016.0 |
| 20260903181658 | 83 | 178 | 7.0 | 16.0 | 0.00 | 0.98 | 0.86 | 73 | 1015.9 |
| 20260903181123 | 83 | 187 | 3.0 | 15.0 | 0.00 | 0.98 | 0.86 | 74 | 1016.0 |
| 20260903180657 | 82 | 172 | 7.0 | 16.0 | 0.00 | 0.98 | 0.86 | 74 | 1016.1 |
| 20260903180123 | 82 | 191 | 7.0 | 13.0 | 0.00 | 0.98 | 0.86 | 73 | 1016.3 |
| 20260903175658 | 82 | 236 | 6.0 | 15.0 | 0.00 | 0.98 | 0.86 | 74 | 1016.1 |
| 20260903175125 | 81 | 154 | 5.0 | 13.0 | 0.00 | 0.98 | 0.86 | 74 | 1016.1 |
| 20260903174620 | 81 | 177 | 9.0 | 15.0 | 0.00 | 0.98 | 0.86 | 74 | 1016.1 |
| 20260903174156 | 81 | 189 | 11.0 | 20.0 | 0.00 | 0.98 | 0.86 | 75 | 1016.2 |
| 20260903173621 | 81 | 164 | 11.0 | 20.0 | 0.00 | 0.98 | 0.86 | 75 | 1016.2 |
| 20260903173135 | 80 | 186 | 8.0 | 19.0 | 0.00 | 0.98 | 0.86 | 76 | 1016.2 |
| 20260903172624 | 80 | 160 | 10.0 | 20.0 | 0.00 | 0.98 | 0.86 | 76 | 1016.2 |
| 20260903172137 | 79 | 183 | 5.0 | 10.0 | 0.00 | 0.98 | 0.86 | 77 | 1016.1 |
| 20260903171645 | 78 | 176 | 4.0 | 9.0 | 0.00 | 0.98 | 0.86 | 78 | 1016.2 |
| 20260903171140 | 78 | 141 | 3.0 | 7.0 | 0.00 | 0.98 | 0.86 | 78 | 1016.3 |
| 20260903170633 | 78 | 186 | 3.0 | 12.0 | 0.00 | 0.98 | 0.86 | 77 | 1016.4 |
| 20260903170119 | 78 | 178 | 7.0 | 17.0 | 0.00 | 0.98 | 0.86 | 77 | 1016.4 |
| 20260903165652 | 78 | 178 | 10.0 | 18.0 | 0.00 | 0.98 | 0.86 | 78 | 1016.6 |
| 20260903165125 | 78 | 145 | 8.0 | 18.0 | 0.00 | 0.98 | 0.86 | 79 | 1016.7 |
| 20260903164659 | 77 | 166 | 5.0 | 10.0 | 0.00 | 0.98 | 0.86 | 79 | 1016.7 |
| 20260903164125 | 77 | 126 | 6.0 | 15.0 | 0.00 | 0.98 | 0.86 | 80 | 1016.7 |
| 20260903163619 | 76 | 201 | 7.0 | 16.0 | 0.00 | 0.98 | 0.86 | 80 | 1016.8 |
| 20260903163133 | 75 | 170 | 9.0 | 14.0 | 0.00 | 0.98 | 0.86 | 81 | 1017.0 |
| 20260903162622 | 75 | 206 | 4.0 | 12.0 | 0.00 | 0.98 | 0.86 | 83 | 1016.9 |
| 20260903162135 | 75 | 154 | 7.0 | 10.0 | 0.00 | 0.98 | 0.86 | 84 | 1017.0 |
| 20260903161642 | 74 | 168 | 5.0 | 8.0 | 0.00 | 0.98 | 0.86 | 85 | 1017.1 |
| 20260903161138 | 74 | 198 | 4.0 | 14.0 | 0.01 | 0.98 | 0.86 | 86 | 1017.1 |
| 20260903160624 | 73 | 192 | 8.0 | 14.0 | 0.01 | 1.37 | 0.86 | 86 | 1017.1 |
| 20260903160138 | 73 | 201 | 5.0 | 16.0 | 0.01 | 1.37 | 0.86 | 86 | 1017.4 |
| 20260903155626 | 73 | 170 | 8.0 | 16.0 | 0.01 | 1.37 | 0.86 | 86 | 1017.4 |
| 20260903155138 | 72 | 175 | 5.0 | 12.0 | 0.02 | 1.37 | 0.86 | 86 | 1017.4 |
| 20260903154625 | 72 | 185 | 4.0 | 12.0 | 0.02 | 1.37 | 0.86 | 86 | 1017.4 |
| 20260903154120 | 72 | 181 | 1.0 | 4.0 | 0.02 | 1.37 | 0.86 | 86 | 1017.6 |
| 20260903153654 | 71 | 193 | 0.0 | 6.0 | 0.02 | 1.37 | 0.86 | 87 | 1017.6 |
| 20260903153121 | 70 | 193 | 1.0 | 9.0 | 0.02 | 1.37 | 0.86 | 87 | 1017.9 |
| 20260903152638 | 70 | 194 | 4.0 | 11.0 | 0.02 | 1.37 | 0.86 | 87 | 1017.8 |
| 20260903152124 | 70 | 205 | 5.0 | 13.0 | 0.02 | 1.37 | 0.86 | 86 | 1018.0 |
| 20260903151635 | 70 | 174 | 8.0 | 13.0 | 0.03 | 1.37 | 0.86 | 86 | 1018.1 |
| 20260903151123 | 70 | 176 | 6.0 | 12.0 | 0.02 | 1.36 | 0.85 | 87 | 1018.4 |
| 20260903150616 | 70 | 220 | 5.0 | 9.0 | 0.02 | 1.36 | 0.85 | 87 | 1018.6 |
| 20260903150130 | 70 | 200 | 2.0 | 8.0 | 0.02 | 1.36 | 0.85 | 87 | 1018.6 |
| 20260903145639 | 70 | 199 | 3.0 | 7.0 | 0.02 | 1.36 | 0.85 | 87 | 1018.8 |
| 20260903145132 | 69 | 183 | 2.0 | 5.0 | 0.01 | 1.35 | 0.84 | 87 | 1018.9 |
| 20260903144620 | 69 | 203 | 0.0 | 4.0 | 0.02 | 1.35 | 0.84 | 87 | 1018.9 |
| 20260903144137 | 69 | 200 | 1.0 | 8.0 | 0.02 | 1.35 | 0.84 | 87 | 1018.8 |
| 20260903143623 | 69 | 191 | 3.0 | 8.0 | 0.02 | 1.35 | 0.84 | 87 | 1018.6 |
| 20260903143137 | 69 | 187 | 3.0 | 6.0 | 0.02 | 1.35 | 0.84 | 87 | 1018.6 |
| 20260903142624 | 69 | 182 | 2.0 | 5.0 | 0.03 | 1.35 | 0.84 | 87 | 1018.6 |
| 20260903142117 | 69 | 174 | 1.0 | 4.0 | 0.03 | 1.34 | 0.83 | 87 | 1018.4 |
| 20260903141631 | 69 | 234 | 0.0 | 6.0 | 0.03 | 1.34 | 0.83 | 87 | 1018.4 |
| 20260903141140 | 69 | 234 | 4.0 | 7.0 | 0.03 | 1.34 | 0.83 | 87 | 1018.6 |
| 20260903140625 | 69 | 223 | 3.0 | 8.0 | 0.04 | 1.34 | 0.83 | 87 | 1018.4 |
| 20260903140138 | 69 | 227 | 3.0 | 6.0 | 0.05 | 1.34 | 0.83 | 87 | 1018.3 |
| 20260903135625 | 68 | 228 | 0.0 | 3.0 | 0.07 | 1.34 | 0.83 | 87 | 1018.2 |
| 20260903135119 | 68 | 151 | 1.0 | 7.0 | 0.07 | 1.34 | 0.83 | 87 | 1018.3 |
| 20260903134634 | 68 | 129 | 3.0 | 7.0 | 0.06 | 1.33 | 0.82 | 87 | 1018.2 |
| 20260903134142 | 68 | 66 | 0.0 | 1.0 | 0.06 | 1.33 | 0.82 | 87 | 1018.1 |